• In Deutschland
  • Länderverzeichnis
  • Für 7 Tage
  • Wassertemperatur
  • Satellitenkarten
  • Wetterkarte
  • Widgets
  • user-avatar
    Anmelden

    Stündliche Wetter Friedberg

    Heute, 11 Dezember, Montag

    Zeit Temperatur Niederschläge Wind Luftdruck Luftfeuchtigkeit
    00:00 0°C° 0,1 mm 4 m/S 698 mmHg 84%
    01:00 +1°C° 0 mm 3 m/S 697 mmHg 86%
    02:00 +1°C° 0,5 mm 3 m/S 697 mmHg 87%
    03:00 +2°C° 0,5 mm 2 m/S 697 mmHg 88%
    04:00 +2°C° 0,5 mm 2 m/S 697 mmHg 90%
    05:00 +2°C° 0,3 mm 2 m/S 696 mmHg 90%
    06:00 +1°C° 0,3 mm 2 m/S 696 mmHg 90%
    07:00 0°C° 0,3 mm 3 m/S 695 mmHg 89%
    08:00 +1°C° 0,2 mm 3 m/S 694 mmHg 90%
    09:00 +1°C° 0,2 mm 3 m/S 694 mmHg 90%
    10:00 +1°C° 0,2 mm 3 m/S 693 mmHg 90%
    11:00 +2°C° 0 mm 2 m/S 693 mmHg 92%
    12:00 +3°C° 0 mm 2 m/S 693 mmHg 94%
    13:00 +4°C° 0 mm 1 m/S 692 mmHg 96%
    14:00 +4°C° 0 mm 1 m/S 693 mmHg 94%
    15:00 +4°C° 0 mm 1 m/S 693 mmHg 93%
    16:00 +4°C° 0 mm 1 m/S 693 mmHg 91%
    17:00 +3°C° 0 mm 2 m/S 694 mmHg 91%
    18:00 +2°C° 0 mm 3 m/S 695 mmHg 90%
    19:00 +1°C° 0 mm 3 m/S 696 mmHg 90%
    20:00 +2°C° 0,3 mm 3 m/S 697 mmHg 91%
    21:00 +2°C° 0,3 mm 3 m/S 698 mmHg 93%
    22:00 +2°C° 0,3 mm 3 m/S 699 mmHg 94%
    23:00 +1°C° 0,7 mm 4 m/S 699 mmHg 92%

    Morgen, 12 Dezember, Dienstag

    Zeit Temperatur Niederschläge Wind Luftdruck Luftfeuchtigkeit
    00:00 +1°C° 0,7 mm 4 m/S 700 mmHg 91%
    01:00 +1°C° 0,7 mm 4 m/S 700 mmHg 89%
    02:00 +1°C° 0,4 mm 4 m/S 701 mmHg 89%
    03:00 +1°C° 0,4 mm 4 m/S 702 mmHg 88%
    04:00 +1°C° 0,4 mm 4 m/S 702 mmHg 88%
    05:00 0°C° 0,2 mm 5 m/S 703 mmHg 87%
    06:00 0°C° 0,2 mm 5 m/S 704 mmHg 87%
    07:00 0°C° 0,2 mm 5 m/S 705 mmHg 87%
    08:00 0°C° 0,1 mm 5 m/S 707 mmHg 86%
    09:00 0°C° 0,1 mm 5 m/S 708 mmHg 86%
    10:00 -1°C° 0,1 mm 5 m/S 709 mmHg 85%
    11:00 0°C° 0,1 mm 5 m/S 710 mmHg 85%
    12:00 0°C° 0,1 mm 5 m/S 711 mmHg 85%
    13:00 0°C° 0,1 mm 5 m/S 712 mmHg 85%
    14:00 -1°C° 0,1 mm 4 m/S 712 mmHg 86%
    15:00 -1°C° 0,1 mm 4 m/S 713 mmHg 87%
    16:00 0°C° 0,1 mm 3 m/S 714 mmHg 88%
    17:00 -1°C° 0,1 mm 3 m/S 715 mmHg 89%
    18:00 -1°C° 0,1 mm 3 m/S 715 mmHg 90%
    19:00 -1°C° 0,1 mm 3 m/S 716 mmHg 91%
    20:00 -1°C° 0,1 mm 3 m/S 717 mmHg 91%
    21:00 -2°C° 0,1 mm 3 m/S 717 mmHg 91%
    22:00 -3°C° 0,1 mm 4 m/S 718 mmHg 91%
    23:00 -3°C° 0 mm 4 m/S 718 mmHg 91%

    übermorgen, 13 Dezember, Mittwoch

    Zeit Temperatur Niederschläge Wind Luftdruck Luftfeuchtigkeit
    00:00 -4°C° 0 mm 4 m/S 718 mmHg 91%
    01:00 -4°C° 0 mm 4 m/S 719 mmHg 91%
    02:00 -5°C° 0 mm 3 m/S 719 mmHg 91%
    03:00 -5°C° 0 mm 3 m/S 719 mmHg 91%
    04:00 -5°C° 0 mm 3 m/S 719 mmHg 91%
    05:00 -5°C° 0 mm 3 m/S 719 mmHg 90%
    06:00 -6°C° 0 mm 3 m/S 719 mmHg 89%
    07:00 -6°C° 0 mm 3 m/S 719 mmHg 88%
    08:00 -5°C° 0 mm 3 m/S 719 mmHg 83%
    09:00 -4°C° 0 mm 3 m/S 718 mmHg 78%
    10:00 -4°C° 0 mm 4 m/S 718 mmHg 74%
    11:00 -3°C° 0 mm 4 m/S 717 mmHg 71%
    12:00 -1°C° 0 mm 3 m/S 716 mmHg 69%
    13:00 +1°C° 0 mm 3 m/S 715 mmHg 67%
    14:00 0°C° 0 mm 3 m/S 714 mmHg 70%
    15:00 0°C° 0 mm 3 m/S 714 mmHg 73%
    16:00 -1°C° 0 mm 2 m/S 713 mmHg 77%
    17:00 -1°C° 0,2 mm 3 m/S 713 mmHg 77%
    18:00 0°C° 0,2 mm 3 m/S 713 mmHg 77%
    19:00 -1°C° 0,2 mm 4 m/S 713 mmHg 77%
    20:00 -1°C° 0,1 mm 4 m/S 712 mmHg 78%
    21:00 -1°C° 0,1 mm 4 m/S 712 mmHg 78%
    22:00 -1°C° 0,1 mm 4 m/S 711 mmHg 79%
    23:00 -1°C° 0,4 mm 4 m/S 711 mmHg 80%

    14 Dezember, Donnerstag

    Zeit Temperatur Niederschläge Wind Luftdruck Luftfeuchtigkeit
    00:00 -1°C° 0,4 mm 4 m/S 710 mmHg 80%
    01:00 0°C° 0,4 mm 4 m/S 709 mmHg 81%
    02:00 0°C° 0,3 mm 4 m/S 709 mmHg 81%
    03:00 0°C° 0,3 mm 4 m/S 708 mmHg 81%
    04:00 0°C° 0,3 mm 5 m/S 708 mmHg 82%
    05:00 +1°C° 0,4 mm 5 m/S 708 mmHg 84%
    06:00 +1°C° 0,4 mm 5 m/S 708 mmHg 86%
    07:00 +1°C° 0,4 mm 5 m/S 708 mmHg 89%
    08:00 +2°C° 0,3 mm 5 m/S 708 mmHg 90%
    09:00 +2°C° 0,3 mm 5 m/S 707 mmHg 92%
    10:00 +3°C° 0,3 mm 4 m/S 707 mmHg 93%
    11:00 +3°C° 0,1 mm 5 m/S 707 mmHg 90%
    12:00 +3°C° 0,1 mm 5 m/S 706 mmHg 87%
    13:00 +4°C° 0,1 mm 6 m/S 706 mmHg 84%
    14:00 +3°C° 0,1 mm 6 m/S 705 mmHg 84%
    15:00 +3°C° 0,1 mm 6 m/S 704 mmHg 83%
    16:00 +3°C° 0,1 mm 6 m/S 703 mmHg 83%
    17:00 +3°C° 1,3 mm 6 m/S 703 mmHg 83%
    18:00 +2°C° 1,3 mm 7 m/S 703 mmHg 83%
    19:00 +2°C° 1,3 mm 7 m/S 703 mmHg 83%
    20:00 +1°C° 1,8 mm 6 m/S 704 mmHg 85%
    21:00 +1°C° 1,8 mm 5 m/S 705 mmHg 88%
    22:00 +1°C° 1,8 mm 3 m/S 705 mmHg 90%
    23:00 +1°C° 1,3 mm 3 m/S 705 mmHg 91%

    15 Dezember, Freitag

    Zeit Temperatur Niederschläge Wind Luftdruck Luftfeuchtigkeit
    00:00 +1°C° 1,3 mm 3 m/S 706 mmHg 92%
    01:00 +1°C° 1,3 mm 3 m/S 706 mmHg 93%
    02:00 +1°C° 1 mm 3 m/S 706 mmHg 93%
    03:00 0°C° 1 mm 3 m/S 706 mmHg 94%
    04:00 0°C° 1 mm 3 m/S 705 mmHg 95%
    05:00 0°C° 0,6 mm 3 m/S 705 mmHg 95%
    06:00 0°C° 0,6 mm 3 m/S 705 mmHg 95%
    07:00 0°C° 0,6 mm 3 m/S 705 mmHg 95%
    08:00 +1°C° 0,5 mm 2 m/S 704 mmHg 96%
    09:00 +1°C° 0,5 mm 2 m/S 704 mmHg 97%
    10:00 +1°C° 0,5 mm 2 m/S 704 mmHg 98%
    11:00 +2°C° 0,5 mm 2 m/S 704 mmHg 98%
    12:00 +2°C° 0,5 mm 2 m/S 703 mmHg 98%
    13:00 +3°C° 0,5 mm 1 m/S 703 mmHg 98%
    14:00 +2°C° 0,3 mm 2 m/S 703 mmHg 97%
    15:00 +1°C° 0,3 mm 2 m/S 703 mmHg 96%
    16:00 0°C° 0,3 mm 3 m/S 704 mmHg 95%
    17:00 0°C° 0,1 mm 3 m/S 704 mmHg 94%
    18:00 0°C° 0,1 mm 3 m/S 705 mmHg 93%
    19:00 -1°C° 0,1 mm 3 m/S 705 mmHg 92%
    20:00 -1°C° 0 mm 3 m/S 705 mmHg 91%
    21:00 -1°C° 0 mm 3 m/S 705 mmHg 90%
    22:00 -1°C° 0 mm 3 m/S 705 mmHg 90%
    23:00 -1°C° 0,2 mm 3 m/S 706 mmHg 90%

    16 Dezember, Samstag

    Zeit Temperatur Niederschläge Wind Luftdruck Luftfeuchtigkeit
    00:00 -1°C° 0,2 mm 3 m/S 706 mmHg 90%
    01:00 -1°C° 0,2 mm 3 m/S 706 mmHg 91%
    02:00 -2°C° 0,5 mm 4 m/S 707 mmHg 91%
    03:00 -2°C° 0,5 mm 5 m/S 707 mmHg 91%
    04:00 -3°C° 0,5 mm 6 m/S 707 mmHg 92%
    05:00 -2°C° 0,2 mm 5 m/S 708 mmHg 91%
    06:00 -4°C° 0,2 mm 5 m/S 708 mmHg 90%
    07:00 -5°C° 0,2 mm 5 m/S 709 mmHg 89%
    08:00 -4°C° 0,1 mm 5 m/S 710 mmHg 89%
    09:00 -4°C° 0,1 mm 6 m/S 710 mmHg 89%
    10:00 -3°C° 0,1 mm 6 m/S 711 mmHg 89%
    11:00 -3°C° 0,1 mm 6 m/S 711 mmHg 89%
    12:00 -2°C° 0,1 mm 6 m/S 711 mmHg 88%
    13:00 -2°C° 0,1 mm 6 m/S 712 mmHg 88%
    14:00 -1°C° 0,2 mm 5 m/S 712 mmHg 88%
    15:00 -2°C° 0,2 mm 5 m/S 712 mmHg 89%
    16:00 -2°C° 0,2 mm 5 m/S 713 mmHg 89%
    17:00 -2°C° 0,3 mm 5 m/S 713 mmHg 90%
    18:00 -2°C° 0,3 mm 5 m/S 714 mmHg 90%
    19:00 -3°C° 0,3 mm 4 m/S 715 mmHg 91%
    20:00 -3°C° 0,2 mm 4 m/S 715 mmHg 91%
    21:00 -4°C° 0,2 mm 4 m/S 715 mmHg 91%
    22:00 -4°C° 0,2 mm 4 m/S 716 mmHg 92%
    23:00 -4°C° 0,1 mm 4 m/S 716 mmHg 92%
    Mehr zeigen